Preview of NWS' New Version of Forecast
This preview is not operational and should not be used for support decisions.

Regional Weather Roundup (RWR)

Issued by National Weather Service (NWS)

                            
000
ASUS46 KSEW 211420
RWRWA 

WASHINGTON REGIONAL WEATHER ROUNDUP
NATIONAL WEATHER SERVICE SEATTLE WA
700 AM PDT SAT SEP 21 2019

NOTE:"FAIR" INDICATES FEW OR NO CLOUDS BELOW 12,000 FEET WITH NO 
SIGNIFICANT WEATHER AND/OR OBSTRUCTIONS TO VISIBILITY.

WAZ507-509-555>559-211500-
SEATTLE, TACOMA, EVERETT, AND VICINITY
  
CITY           SKY/WX    TMP DP  RH WIND       PRES   REMARKS
EVERETT        CLOUDY    56  55  97 SW5       30.15R FOG              
BOEING FIELD   NOT AVBL                                               
RENTON         CLOUDY    59  53  80 CALM      30.14S                  
SEATAC AIRPORT CLOUDY    58  54  86 SW3       30.15R                  
JBLM-MCCHORD   CLEAR     49  49 100 CALM      30.15R                  
PUYALLUP       DRIZZLE   54  54 100 CALM      30.15R                  
BREMERTON      FOG       54  54 100 S3        30.15R VSB 1/2          
JBLM-FT LEWIS  CLEAR     49  49 100 CALM      30.14R FOG              
TACOMA NARROWS CLOUDY    55  54  96 S3        30.14F                  
$$
 
WAZ001-503-506-510-514-515-211500-
NORTH INTERIOR
  
CITY           SKY/WX    TMP DP  RH WIND       PRES   REMARKS
BELLINGHAM     CLOUDY    59  52  77 CALM      30.13R                  
FRIDAY HARBOR  FOG       51  49  92 CALM      30.14S VSB 3/4          
EASTSOUND      MOCLDY    54  54 100 SE3       30.13R                  
PORT ANGELES   PTCLDY    51  49  92 SW3       30.14F                  
EDIZ HOOK      FAIR      53  51  92 S6        30.13F                  
PORT TOWNSEND  CLOUDY    55  55 100 CALM      30.13S                  
NAS WHIDBEY    MOCLDY    56  51  84 SE3       30.18R                  
ARLINGTON      CLOUDY    52  51  97 CALM      30.15R                  
BURLINGTON     PTCLDY    52  52 100 CALM      30.15R                  
$$
 
WAZ020-022-039-040-504-511-512-211500-
SOUTHWEST INTERIOR
  
CITY           SKY/WX    TMP DP  RH WIND       PRES   REMARKS
SHELTON        CLOUDY    56  54  93 W3        30.13R FOG              
OLYMPIA        CLOUDY    51  50  96 CALM      30.15R                  
CHEHALIS       CLOUDY    52  52 100 CALM      30.16R                  
KELSO          CLOUDY    57  56  96 CALM      30.16R                  
VANCOUVER      CLOUDY    55  53  93 CALM      30.15S                  
SCAPPOOSE, OR  FOG       49  48  97 SE6       30.15R VSB 1/4          
PORTLAND, OR   CLOUDY    57  54  89 CALM      30.15F                  
$$
 
WAZ021-516-517-211500-
WASHINGTON COAST
  
CITY           SKY/WX    TMP DP  RH WIND       PRES   REMARKS
FORKS          CLOUDY    55  53  93 CALM      30.14R FOG              
HOQUIAM        CLOUDY    55  55 100 E5        30.15S                  
ASTORIA, OR    LGT RAIN  59  58  96 CALM      30.14R FOG              
$$
 
WAZ019-023-024-040-567>569-211500-
CASCADE MOUNTAINS AND COLUMBIA GORGE
  
CITY           SKY/WX    TMP DP  RH WIND       PRES   REMARKS
STAMPEDE PASS  FOG       46  44  93 VRB5      30.15S VSB 1/4          
TROUTDALE, OR  CLOUDY    59  55  87 CALM      30.15S                  
HOOD RIVER, OR SUNNY     50  46  87 S3        30.13R                  
THE DALLES, OR CLEAR     53  48  83 SE5       30.11S                  
$$

WAZ026-027-041>044-520-521-211500-
EAST SLOPES
  
CITY           SKY/WX    TMP DP  RH WIND       PRES   REMARKS
OMAK           CLEAR     46  40  79 N8        30.08S                  
WENATCHEE      CLEAR     52  44  74 W3        30.08S                  
ELLENSBURG     CLEAR     52  44  74 N5        30.09S                  
YAKIMA         CLEAR     43  38  82 W6        30.10R                  
SUNNYSIDE ARPT SUNNY     44  42  95 CALM      30.10R                  
YAKIMA TC      FAIR      47  41  80 NE3       30.08S                  
$$

WAZ028-034-035-211500-
COLUMBIA BASIN
  
CITY           SKY/WX    TMP DP  RH WIND       PRES   REMARKS
EPHRATA        CLEAR     44  42  93 NE3       30.07R                  
MOSES LAKE     PTCLDY    46  41  82 NE3       30.08R                  
PASCO          PTCLDY    55  49  80 SW7       30.10R                  
RICHLAND ARPT  MOSUNNY   55  50  81 SW6       30.10                   
HERMISTON, OR  PTCLDY    51  45  79 S7        30.11R                  
$$

WAZ036>038-211500-
NORTHEAST WASHINGTON
  
CITY           SKY/WX    TMP DP  RH WIND       PRES   REMARKS
SPOKANE GEIGER MOCLDY    45  42  89 SE7       30.09R                  
SPOKANE FELTS  CLEAR     46  44  93 NE3       30.11R                  
FAIRCHILD AFB  CLEAR     44  44 100 S7        30.09R                  
COEURDALENE,ID FOG       37  37 100 SW3       30.11R VSB 1/4          
DEER PARK      CLOUDY    39  38  96 CALM      30.11R FOG              
$$

WAZ029>033-211500-
SOUTHEAST WASHINGTON
  
CITY           SKY/WX    TMP DP  RH WIND       PRES   REMARKS
PULLMAN        PTCLDY    46  43  89 CALM      30.13R                  
LEWISTON, ID   MOCLDY    55  51  86 E8        30.10R                  
WALLA WALLA    PTCLDY    54  46  74 S7        30.11S                  
PENDLETON, OR  CLEAR     48  44  86 S8        30.12S                  
$$